WA8SIE Weather Reports


Display with metric or nautical units.
time (UTC)temp
F
wind
direction
speed
MPH
gust
MPH
rain 1hr
in
rain 24hr
in
rain mn
in
humidity
%
barometer
mb
20260508044011 43 309 0.0 0.0 0.00 0.00 0.00 89 1009.9
20260508043511 43 309 0.0 0.0 0.00 0.00 0.00 88 1009.9
20260508043011 43 309 0.0 0.0 0.00 0.00 0.00 88 1009.9
20260508042511 43 309 0.0 0.0 0.00 0.00 0.00 87 1009.8
20260508042011 43 309 0.0 0.0 0.00 0.00 0.00 87 1009.8
20260508041511 44 309 0.0 0.0 0.00 0.00 0.00 87 1009.8
20260508041011 44 309 0.0 0.0 0.00 0.00 0.00 87 1009.9
20260508040511 44 309 0.0 0.0 0.00 0.00 0.00 86 1009.9
20260508040011 44 309 0.0 0.0 0.00 0.00 0.00 86 1009.9
20260508035511 44 309 0.0 0.0 0.00 0.00 0.00 85 1009.8
20260508035011 44 305 0.0 0.0 0.00 0.00 0.00 85 1009.8
20260508034011 45 305 0.0 0.0 0.00 0.00 0.00 83 1009.9
20260508033511 45 305 0.0 0.0 0.00 0.00 0.00 82 1009.9
20260508032511 45 305 0.0 0.0 0.00 0.00 0.00 81 1009.6
20260508031011 46 305 0.0 0.0 0.00 0.00 0.00 80 1009.5
20260508030511 46 305 0.0 0.0 0.00 0.00 0.00 79 1009.5
20260508025511 47 304 0.0 0.0 0.00 0.00 0.00 77 1009.3
20260508025012 47 304 0.0 0.0 0.00 0.00 0.00 75 1009.3
20260508024511 47 305 0.0 0.0 0.00 0.00 0.00 75 1009.3
20260508024011 47 305 0.0 0.0 0.00 0.00 0.00 73 1009.1
20260508023511 48 305 0.0 0.0 0.00 0.00 0.00 72 1009.1
20260508023011 48 304 0.0 0.0 0.00 0.00 0.00 70 1009.1
20260508022011 49 304 0.0 0.0 0.00 0.00 0.00 68 1008.8
20260508021512 49 305 0.0 0.0 0.00 0.00 0.00 67 1008.8
20260508020510 49 305 0.0 0.0 0.00 0.00 0.00 66 1008.6
20260508020011 50 305 0.0 0.0 0.00 0.00 0.00 64 1008.6
20260508015510 50 305 0.0 0.0 0.00 0.00 0.00 63 1008.3
20260508015011 50 305 0.0 0.0 0.00 0.00 0.00 61 1008.3
20260508014512 50 305 0.0 0.0 0.00 0.00 0.00 61 1008.3
20260508014011 50 305 0.0 0.0 0.00 0.00 0.00 60 1008.2
20260508013511 51 305 0.0 0.0 0.00 0.00 0.00 61 1008.2
20260508013012 51 305 0.0 0.0 0.00 0.00 0.00 60 1008.2
20260508012512 51 304 0.0 0.0 0.00 0.00 0.00 58 1007.9
20260508012010 52 305 0.0 0.0 0.00 0.00 0.00 60 1007.9
20260508011510 53 305 0.0 0.0 0.00 0.00 0.00 58 1007.9
20260508011011 53 305 0.0 0.0 0.00 0.00 0.00 56 1007.8
20260508010511 54 305 0.0 0.0 0.00 0.00 0.00 53 1007.8
20260508010011 54 305 0.0 0.0 0.00 0.00 0.00 51 1007.8
20260508005011 56 305 0.0 0.0 0.00 0.00 0.00 48 1008.6
20260508004011 57 305 0.0 0.0 0.00 0.00 0.00 44 1008.4
20260508003010 58 305 0.0 0.0 0.00 0.00 0.00 40 1008.4
20260508002512 58 325 0.0 0.0 0.00 0.00 0.00 40 1008.2
20260508002010 59 278 0.0 0.0 0.00 0.00 0.00 39 1008.2
20260508001510 59 312 6.0 0.0 0.00 0.00 0.00 40 1008.2
20260508000511 60 320 0.0 0.0 0.00 0.00 0.00 38 1008.0
20260508000011 60 358 1.0 0.0 0.00 0.00 0.00 39 1008.0
20260507235510 60 290 0.0 0.0 0.00 0.00 0.00 41 1007.6
20260507235010 60 301 1.0 0.0 0.00 0.00 0.00 42 1007.6
20260507234010 60 304 2.0 0.0 0.00 0.00 0.00 39 1007.5
20260507233510 61 259 0.0 0.0 0.00 0.00 0.00 40 1007.5
20260507233010 61 326 4.0 0.0 0.00 0.00 0.00 40 1007.5
20260507232510 61 281 0.0 0.0 0.00 0.00 0.00 39 1007.4
20260507232010 62 300 0.0 0.0 0.00 0.00 0.00 39 1007.4
20260507231510 62 310 1.0 0.0 0.00 0.00 0.00 37 1007.4
20260507231010 62 255 1.0 0.0 0.00 0.00 0.00 37 1007.4
20260507230510 62 290 0.0 0.0 0.00 0.00 0.00 36 1007.4
20260507230010 62 303 7.0 0.0 0.00 0.00 0.00 37 1007.4
20260507225510 62 349 0.0 0.0 0.00 0.00 0.00 41 1007.5
20260507225010 62 278 0.0 0.0 0.00 0.00 0.00 39 1007.5
20260507224510 62 295 0.0 0.0 0.00 0.00 0.00 39 1007.5
20260507224010 62 296 0.0 0.0 0.00 0.00 0.00 38 1007.1
20260507223510 63 350 5.0 0.0 0.00 0.00 0.00 38 1007.1
20260507223011 63 353 1.0 0.0 0.00 0.00 0.00 37 1007.1
20260507222511 62 327 0.0 0.0 0.00 0.00 0.00 38 1007.0
20260507222011 62 288 7.0 0.0 0.00 0.00 0.00 36 1007.0
20260507221511 63 349 6.0 0.0 0.00 0.00 0.00 38 1007.0
20260507221011 63 294 5.0 0.0 0.00 0.00 0.00 37 1006.9
20260507220511 63 269 7.0 0.0 0.00 0.00 0.00 41 1006.9
20260507220011 63 2 0.0 0.0 0.00 0.00 0.00 39 1006.9
20260507215511 63 220 0.0 0.0 0.00 0.00 0.00 39 1006.9
20260507214512 63 283 4.0 0.0 0.00 0.00 0.00 42 1006.9
20260507214011 64 13 0.0 0.0 0.00 0.00 0.00 39 1006.7
20260507213511 64 293 2.0 0.0 0.00 0.00 0.00 39 1006.7
20260507213011 64 233 2.0 0.0 0.00 0.00 0.00 40 1006.7
20260507212511 64 309 4.0 0.0 0.00 0.00 0.00 40 1006.4
20260507211511 64 246 10.0 0.0 0.00 0.00 0.00 41 1006.4
20260507211011 64 206 0.0 0.0 0.00 0.00 0.00 39 1006.4
20260507210513 64 206 0.0 0.0 0.00 0.00 0.00 41 1006.4
20260507205511 64 217 0.0 0.0 0.00 0.00 0.00 41 1006.4
20260507205011 63 319 4.0 0.0 0.00 0.00 0.00 44 1006.4
20260507204512 63 321 3.0 0.0 0.00 0.00 0.00 38 1006.4
20260507204011 62 0.0 0.0 0.00 0.00 0.00 42 1006.4
20260507203511 62 297 3.0 0.0 0.00 0.00 0.00 39 1006.4
20260507203011 62 236 0.0 0.0 0.00 0.00 0.00 42 1006.4
20260507202511 62 350 7.0 0.0 0.00 0.00 0.00 41 1006.4